Regional Weather Roundup
Issued by NWS Goodland, KS

Home | Current Version | Previous Version | Text Only | Print | Product List | Glossary Off
Versions: 1 2 3 4 5 6 7 8 9 10 11 12 13 14 15 16 17 18 19 20 21 22 23 24 25 26 27 28 29 30 31 32 33 34 35 36 37 38 39 40 41 42 43 44 45 46 47 48 49 50

000
ASUS43 KGLD 231508
RWRGLD

GOODLAND FORECAST AREA HOURLY WEATHER ROUNDUP
NATIONAL WEATHER SERVICE GOODLAND KS
900 AM MDT TUE SEP 23 2014

...OFFICIAL OBSERVATIONS...

CITY           SKY/WX    TMP DP  RH WIND       PRES   REMARKS
GOODLAND KS    MOSUNNY   60  58  92 S8        30.08R
HILL CITY KS   CLOUDY    62  53  72 S13G21    30.07S
IMPERIAL NEB   MOSUNNY   65  57  75 SW14      30.03S
MCCOOK NEB     CLOUDY    61  56  83 S10       30.05R
AKRON CO       PTSUNNY   64  55  72 W13       30.11R
BURLINGTON CO  MOSUNNY   63  58  83 SW7       30.10R
LIMON CO       SUNNY     64  51  62 CALM      30.16R
$$

...UNOFFICIAL OBSERVATIONS...

CITY           SKY/WX    TMP DP  RH WIND       PRES   REMARKS
COLBY KS       SUNNY     64  61  88 S8        30.07S
GOVE KS          N/A     60  32  34 MISG        N/A
NORTON KS      SUNNY     61  50  67 S12G21    30.05
SHARON SPRINGS   N/A     66  61  84 S5          N/A
WAKEENEY KS      N/A     61  51  70 MISG        N/A
KIT CARSON CO    N/A     64  59  83 CALM        N/A
$$



USA.gov is the U.S. government's official web portal to all federal, state and local government web resources and services.